Terug naar catalogus

ARIANE 44L DEB

LostHEO
NORAD 34181·DEBRIS·🇫🇷 France

Gelanceerd Jul 9, 1992 vanaf Guiana Space Centre

Loading…

Volgende Passages (komende 24 uur)

TLE

VerouderdSource: Space-Track

Epoch: Oct 23, 2024, 22:42 UTC

1 34181U 92041K   24297.94606704  .00003391  00000-0  86530-2 0  9993
2 34181   6.3241 103.1858 6954366 341.8875   2.2893  2.60228441173831

Volg ARIANE 44L DEB in realtime met AllMySat

Download on the App Store